ASTRA 1G
1 25071U 97076A   03108.00000000  .00000114  00000-0  10000-3 0  3990
2 25071   0.0122 319.8851 0002995  65.1991 199.8263  1.00273184 19726
INMARSAT 3-F5
1 25153U 98006B   03119.92970054  .00000143  00000-0  10000-3 0  8800
2 25153   0.4576   4.9932 0003011 358.0659 214.1502  1.00276500 19206
HOT BIRD 4
1 25237U 98013A   03099.84635997  .00000087  00000-0  10000-3 0  3344
2 25237   0.0316 347.7932 0006645  69.4486  98.0254  1.00270260 19044
NOAA-15
1 25338U 98030A   03120.55255240  .00000217  00000-0  11252-3 0   978
2 25338  98.5425 140.7679 0011604 108.6968 251.5472 14.24278807257902
RESURS O1-N4
1 25394U 98043A   03119.97609738 +.00000149 +00000-0 +83993-4 0 05312
2 25394 098.6204 196.5636 0000445 267.0208 093.0921 14.23904063249559
TO-31
1 25396U 98043C   03120.24555388 -.00000043  00000-0  00000+0 0  8441
2 25396  98.6140 195.9213 0001822 302.6624  57.4383 14.23533614249581
GO-32
1 25397U 98043D   03119.94341068 +.00000098 +00000-0 +62483-4 0 01917
2 25397 098.6116 194.4180 0000851 354.0198 006.0973 14.22976322249503
ASTRA 2A
1 25462U 98050A   03108.00000000  .00000144  00000-0  00000+0 0  5414
2 25462   0.0385 308.7109 0004824 280.8620   4.3097  1.00272094 17027
EUTELSAT W2
1 25491U 98056A   03114.89855904  .00000089  00000-0  00000+0 0  6023
2 25491   0.0348  75.4007 0003740 320.9809 155.6107  1.00273675 16706
HOT BIRD 5
1 25495U 98057A   03115.92117697  .00000131  00000-0  00000+0 0  5109
2 25495   0.0407 123.6596 0007575 305.2431 141.9568  1.00273835 16686
SO-33
1 25509U 98061B   03119.93638026 +.00000562 +00000-0 +98854-4 0 08356
2 25509 031.4276 115.7684 0357664 197.4122 161.3984 14.27493608235371
PO-34
1 25520U 98064B   03119.36443558 +.00003022 +00000-0 +15084-3 0 06752
2 25520 028.4580 118.8288 0005654 032.0650 328.0285 15.14242196248170
ISS (ZARYA)
1 25544U 98067A   03120.49491219  .00025758  00000-0  33295-3 0  9470
2 25544  51.6324 259.8619 0006534  69.6708  57.9630 15.58744239253566
ORSTED
1 25635U 99008B   03119.95722601 +.00000745 +00000-0 +19497-3 0 08935
2 25635 096.4631 089.4071 0146352 105.3900 256.3519 14.44943166220108
SUNSAT
1 25636U 99008C   03119.96216055 +.00000373 +00000-0 +10492-3 0 06838
2 25636 096.4647 087.9227 0150122 112.4302 249.2872 14.43006492219963
UO-36
1 25693U 99021A   03120.46826019  .00000455  00000-0  84733-4 0  9261
2 25693  64.5582 153.7683 0026633 311.7779  48.1035 14.76464458216723
FENGYUN 1C
1 25730U 99025A   03119.96050588 +.00000022 +00000-0 +35060-4 0 08381
2 25730 098.6271 141.7023 0014675 158.2613 201.9187 14.11741712204563
ASTRA 1H
1 25785U 99033A   03108.00000000  .00000114  00000-0  10000-3 0  3795
2 25785   0.0122 319.8851 0002995  65.1991 199.8210  1.00273184 14084
TERRA
1 25994U 99068A   03120.24778463  .00000495  00000-0  11978-3 0  287
2 25994  98.1864 195.3287 0000996  92.8089 267.3238 14.57149893178965
WO-39
1 26061U 00004A   03120.20833346  .00000689  00000-0  24588-3 0  8244
2 26061 100.1942 190.3407 0035666  80.0551 280.4653 14.37913933170686
OO-38 OPAL
1 26063U 00004C   03119.74354544  .00000185  00000-0  83904-4 0  7733
2 26063 100.1960 187.0028 0037455  89.0331 271.5140 14.35512698170451
AO-37
1 26065U 00004E   03119.55960166  .00000230  00000-0  99426-4 0  7925
2 26065 100.1986 186.9545 0037964  90.9975 269.5556 14.35543004170423
GOES 11
1 26352U 00022A   03119.55269878 -.00000031  00000-0  10000-3 0  1357
2 26352   0.3148  98.3347 0002118 261.4111 302.3062  1.00273610 10937
EUTELSAT W4
1 26369U 00028A   03115.87831020  .00000142  00000-0  00000+0 0  3771
2 26369   0.0645  30.1196 0007677  50.0705 125.5317  1.00275424 10715
FENGYUN 2B
1 26382U 00032A   03118.64196970 -.00000336 +00000-0 +00000-0 0 08409
2 26382 000.3978 291.9920 0001049 251.7802 008.2329 01.00279869010402
EUTELSAT W1
1 26487U 00052A   03117.88206598  .00000062  00000-0  10000-3 0  3921
2 26487   0.0415 111.1152 0004401 273.7864 158.0368  1.00273626  9701
ASTRA 2B
1 26494U 00054A   03108.00000000  .00000144  00000-0  00000+0 0  2627
2 26494   0.0178 354.5658 0005000 302.8402 296.4717  1.00276704  9500
NOAA-16
1 26536U 00055A   03120.37570724  .00000011  00000-0  30092-4 0  3087
2 26536  98.9115  68.1797 0011339 104.5707 255.6710 14.11945406134140
SO-41
1 26545U 00057A   03120.26947764  .00000996  00000-0  15094-3 0  4457
2 26545  64.5594 174.5952 0046702 227.5201 132.1926 14.79164986139673
UNISAT
1 26547U 00057C   03119.67596724  .00002132  00000-0  29290-3 0  4657
2 26547  64.5572 178.3599 0053860 228.9697 130.6753 14.80045360139562
MO-46
1 26548U 00057D   03119.57392436 +.00001541 +00000-0 +21193-3 0 04490
2 26548 064.5568 168.8349 0039849 228.3707 131.3988 14.81505429139748
SO-42
1 26549U 00057E   03120.22125901  .00001293  00000-0  19418-3 0  7344
2 26549  64.5496 179.2164 0051249 226.9101 132.7714 14.78095383139583
AO-40
1 26609U 00072B   03116.94145327 -.00000469  00000-0  10000-3 0  3266
2 26609   8.5938  51.9652 7956302 168.1313 239.3780  1.25596936 11438
GOES 12
1 26871U 01031A   03120.32416081 -.00000248  00000-0  00000+0 0  9433
2 26871   0.1556 272.9132 0003679 328.2783  18.7963  1.00274520  6547
NO-44 (PCSAT)
1 26931U 01043C   03120.41818496  .00000293  00000-0  14766-3 0  4622
2 26931  67.0458  73.2111 0006018 274.7818  85.2595 14.29155436 82475
NO-45 SAPPHIRE
1 26932U 01043D   03120.17775161  .00000130  00000-0  83311-4 0  4563
2 26932  67.0524  73.5194 0003977 270.1038  89.9607 14.29322221 82461
ENVISAT
1 27386U 02009A   03120.24372941  .00000197  00000-0  89270-4 0   139
2 27386  98.5442 187.7836 0000921  85.7979 274.3310 14.32251791 60862
IDEFIX/ARIANE 42P
1 27422U 02021B   03120.51150609  .00000273  00000-0  12769-3 0  2921
2 27422  98.6841 199.3466 0011754 305.8265  54.1824 14.28009588 51588
FENGYUN 1D
1 27431U 02024B   03119.95826230 +.00000213 +00000-0 +14720-3 0 02743
2 27431 098.7539 167.0074 0014315 286.1512 073.8084 14.09186501049282
NOAA-17
1 27453U 02032A   03120.56676408  .00000313  00000-0  15770-3 0  3934
2 27453  98.7449 191.3601 0012267 147.4038 212.7900 14.23338325 44069
HOT BIRD 6
1 27499U 02038A   03104.14052927  .00000000  00000-0  10000-3 0   739
2 27499   0.0313 303.0505 0012771 138.1476 184.1937  1.00273600  2378
AO-49 RUBIN 2
1 27605U 02058A   03120.12750683  .00000770  00000-0  14425-3 0  1202
2 27605  64.5559 342.9680 0035027  80.7997 279.7061 14.71481832 19196
SO-50
1 27607U 02058C   03119.71507328  .00001172  00000-0  21459-3 0  1137
2 27607  64.5507 345.1476 0036523  77.4562 283.0619 14.70062443 19113
